Theta_e
325 325 325 325 324 323 323 323 323 324 323 322 322 323 323 323 323 318 312 322 325 330 325 323 322 320 321 318 322 317 303 299 302 304 305 310 308 310 313 311 314 319 319 323 329
325 324 325 325 324 323 323 322 322 323 323 322 322 321 322 322 313 309 321 330 330 329 319 314 313 316 312 313 315 308 300 301 306 306 306 310 309 309 308 309 310 317 322 326 327
323 324 324 324 324 324 323 323 322 323 323 322 322 322 321 320 307 303 325 330 331 328 321 321 318 315 309 311 311 308 301 305 305 308 311 309 309 310 308 306 310 312 319 322 325
322 323 323 323 324 324 324 323 322 323 323 322 322 322 321 315 289 315 324 325 331 326 320 318 314 310 306 304 310 304 308 306 308 311 310 308 310 308 309 309 315 314 318 320 322
320 321 322 322 323 323 324 323 323 322 322 322 323 322 314 305 303 318 323 325 323 320 317 314 310 308 303 304 306 305 307 308 308 310 309 311 308 308 308 312 315 315 316 316 319
318 319 321 321 322 322 323 323 323 322 322 322 323 321 309 296 314 315 317 320 317 316 315 315 312 312 308 305 302 307 307 307 306 308 310 307 307 307 308 311 311 314 313 314 314
317 318 319 320 321 321 322 322 322 322 322 322 322 315 304 301 314 316 314 318 316 315 311 315 315 311 310 304 309 307 302 304 304 306 306 307 303 303 308 309 307 308 310 314 315
316 316 317 319 320 321 321 322 321 321 321 322 321 312 300 311 314 312 314 316 320 316 314 316 317 313 309 310 307 302 300 293 300 304 305 304 294 302 306 306 304 305 306 308 313
314 314 316 317 318 320 320 321 320 321 321 321 311 308 299 314 306 310 312 311 315 314 314 315 316 308 307 300 295 297 288 292 294 300 300 302 296 303 305 303 302 303 304 305 306
311 310 311 315 317 318 319 320 320 319 317 314 311 301 304 301 307 307 311 313 311 310 309 309 307 300 299 296 286 289 290 292 291 297 300 296 296 301 304 304 302 303 304 305 305
310 309 309 310 314 318 317 314 307 302 306 299 300 299 302 307 309 305 308 310 310 305 296 302 296 292 295 298 297 294 291 290 294 298 295 295 295 298 300 300 299 300 303 305 307
309 310 308 308 309 315 314 305 306 306 297 303 304 303 305 306 299 302 308 302 302 295 298 295 291 298 300 299 297 295 291 290 293 297 295 293 293 296 298 298 300 300 300 301 302
308 309 309 308 308 307 308 306 314 310 296 298 302 301 302 304 298 299 304 302 297 294 294 291 294 299 297 295 294 293 291 291 290 293 294 292 290 293 297 299 300 301 302 302 302
307 308 309 307 301 303 304 311 314 309 287 290 294 299 302 303 296 303 305 301 297 293 294 293 297 295 294 293 295 289 295 294 293 289 283 292 280 288 293 294 298 300 300 301 303
307 307 307 308 300 300 306 312 313 303 276 292 294 305 303 296 297 297 305 301 293 293 294 290 292 292 292 293 295 291 296 294 292 288 287 286 282 286 292 291 294 297 299 302 303
307 307 307 303 302 301 303 307 305 285 276 287 294 293 293 296 295 298 298 302 301 294 295 293 298 295 294 296 296 297 294 292 291 288 281 286 284 283 287 291 293 297 297 299 297
307 306 304 303 295 304 302 296 285 278 287 285 287 292 291 290 292 293 292 291 288 285 286 288 291 295 297 292 295 295 290 277 279 274 275 287 285 286 291 293 293 294 295 297 300
306 305 303 301 303 302 298 287 278 285 285 289 290 291 287 290 290 291 289 287 292 290 286 283 282 290 296 293 290 291 289 278 271 274 277 285 279 285 294 296 296 297 298 299 300
305 300 299 301 303 300 288 275 280 285 288 287 289 286 286 289 290 289 288 287 290 292 284 283 283 293 295 295 294 290 286 290 281 277 276 281 285 290 293 293 295 296 298 295 299
297 295 294 302 302 295 283 278 281 286 292 290 284 287 283 286 286 287 287 290 289 293 293 288 281 290 292 295 293 291 294 283 281 269 270 276 278 281 287 290 293 294 295 298 299
295 288 295 302 300 288 278 279 283 288 286 289 287 285 287 285 287 286 286 290 292 292 293 289 286 282 290 287 286 287 287 287 286 283 275 273 276 287 288 291 291 294 297 296 295
291 281 297 299 283 283 280 282 287 286 290 290 291 288 287 288 286 286 286 289 294 294 288 291 286 280 284 289 292 290 287 288 280 278 280 279 279 289 290 292 292 291 296 295 294
285 285 296 295 277 279 283 283 284 285 286 287 289 291 292 288 284 287 288 293 294 293 290 291 282 276 279 286 289 286 289 289 288 285 279 276 279 290 291 291 293 293 293 295 295
286 280 286 289 287 283 281 281 281 287 285 286 290 292 290 287 289 286 288 291 293 294 296 294 286 282 277 280 285 283 286 288 287 281 281 282 284 289 291 290 290 291 293 292 293
285 281 284 279 282 283 284 282 280 281 286 288 285 290 288 284 286 286 289 290 292 295 294 291 280 284 285 285 286 285 285 287 285 285 282 284 284 288 291 290 290 290 293 293 293
283 283 285 283 285 283 283 280 281 282 286 283 283 289 290 286 287 285 288 288 287 292 291 292 280 283 276 285 284 281 285 286 287 288 287 287 286 293 292 291 289 291 293 292 294
290 291 288 284 283 281 281 281 282 284 287 289 288 287 288 290 293 293 294 293 291 290 289 288 282 279 277 281 282 273 281 285 286 288 288 284 289 293 292 292 291 292 293 293 294
Wind_Speed
19 18 17 16 15 13 12 9 8 7 7 4 3 3 5 7 11 11 10 2 5 5 8 7 6 7 6 5 1 5 3 6 11 8 7 6 4 3 3 2 1 3 6 10 14
18 19 19 18 17 15 13 12 10 8 7 7 3 3 5 6 9 14 8 6 4 5 6 6 5 5 4 5 4 4 4 9 11 10 6 9 5 8 3 6 4 6 9 11 12
15 18 19 20 18 17 15 13 12 9 8 7 4 3 3 6 7 3 8 1 7 2 8 5 8 5 7 5 5 5 6 9 10 7 8 7 6 1 4 6 6 9 13 11 10
15 15 18 20 20 18 17 15 12 10 9 8 7 5 2 5 6 4 6 5 4 5 7 5 5 5 5 8 8 7 9 10 11 7 6 4 8 6 8 9 6 7 9 10 10
16 15 16 19 20 20 18 16 14 12 10 9 9 7 3 6 7 8 1 2 8 9 9 8 8 7 7 6 8 8 8 10 9 6 2 7 7 9 7 10 8 3 6 7 9
15 15 15 15 19 20 19 18 15 13 11 10 11 8 4 11 2 1 0 1 8 11 10 9 5 6 4 8 7 4 6 13 8 7 3 7 8 8 9 11 10 8 7 8 9
17 16 16 16 18 20 20 19 18 14 13 13 13 8 11 11 4 2 3 4 6 9 10 9 9 6 4 6 3 7 4 8 8 6 6 4 10 11 14 13 11 11 11 12 10
15 16 15 18 17 20 21 20 19 17 15 14 12 10 10 15 7 2 5 5 3 7 10 5 5 4 5 5 2 4 6 5 8 9 9 8 10 10 12 19 14 11 10 10 10
11 12 14 16 17 18 21 20 19 18 16 12 7 10 7 2 11 10 6 8 6 6 5 3 3 5 6 5 5 6 6 12 9 11 5 9 7 8 9 7 8 8 9 9 9
11 6 7 13 18 17 19 20 20 16 12 7 5 8 8 9 9 13 8 8 8 8 7 5 4 7 8 9 8 7 10 8 7 5 7 8 15 8 12 11 10 9 8 9 9
17 12 6 6 14 19 15 7 8 8 18 10 10 6 6 15 9 13 15 10 10 10 8 13 9 15 16 15 14 10 4 8 8 3 2 6 10 13 11 11 12 10 11 14 15
21 19 15 7 8 17 15 16 20 5 11 21 8 21 5 10 11 11 17 13 14 13 13 8 17 13 14 14 13 13 8 6 8 3 2 8 14 15 18 15 17 16 12 14 11
22 20 18 18 8 9 19 27 12 4 6 15 18 21 17 8 11 15 22 15 16 16 18 15 5 18 15 13 12 11 10 9 7 6 7 10 15 17 17 21 20 17 16 12 12
22 22 19 18 6 7 17 20 13 5 6 9 23 8 19 8 8 14 16 14 9 20 12 14 17 14 14 15 14 13 8 8 5 4 4 5 8 6 12 7 6 12 11 12 12
23 21 20 22 0 9 9 14 11 4 14 21 17 10 21 19 13 14 21 15 11 9 13 10 13 13 17 13 11 6 7 8 5 5 7 3 5 5 9 7 10 9 9 10 9
23 22 21 14 8 11 5 7 9 13 16 10 18 20 21 24 13 17 20 9 5 13 15 11 4 6 11 10 9 6 5 4 4 3 7 10 7 5 7 12 7 6 6 4 2
25 22 19 11 17 14 4 3 19 29 9 6 16 28 31 19 24 20 23 22 14 9 13 6 4 2 3 10 8 9 10 2 3 1 7 7 10 13 12 10 6 2 4 5 7
24 22 18 13 9 11 8 9 25 27 17 3 17 30 31 25 25 24 23 23 21 16 13 13 9 11 7 7 9 16 16 6 9 6 5 11 10 7 9 6 3 3 5 2 5
23 12 11 12 13 8 9 13 9 9 17 16 19 27 18 23 15 23 24 31 29 27 11 15 12 15 16 7 12 14 17 6 3 2 2 6 7 7 9 8 5 3 6 4 8
13 10 16 12 15 10 11 19 8 7 19 18 22 18 22 26 19 22 26 26 23 29 13 8 5 12 9 8 9 11 9 8 2 4 5 8 8 10 6 6 9 8 5 8 8
10 8 8 14 12 7 10 13 10 11 18 31 25 15 18 21 20 26 26 15 27 27 24 9 6 3 10 17 15 11 13 8 6 7 6 2 6 9 9 12 9 8 8 8 5
9 10 11 16 12 6 17 7 8 8 15 23 22 15 21 28 22 24 21 19 32 27 32 18 7 8 20 4 9 19 16 20 7 6 3 4 11 3 6 8 7 5 8 6 3
10 7 11 14 14 16 6 7 5 5 14 8 16 22 20 22 21 21 24 29 28 25 25 17 4 6 3 4 5 14 17 14 18 3 8 8 12 10 15 8 6 6 5 6 5
5 8 5 11 10 16 18 11 12 14 19 7 12 16 26 21 11 21 24 13 12 29 15 18 5 13 15 13 11 15 21 23 18 11 21 15 24 17 13 8 5 5 5 4 4
4 6 5 12 16 23 11 13 17 6 19 18 9 31 21 19 22 14 21 16 13 22 18 14 12 16 21 3 10 15 20 22 23 25 18 30 25 31 15 9 6 2 4 5 5
7 5 3 3 15 24 26 11 21 25 8 14 17 28 31 19 19 22 24 19 24 20 22 13 10 7 6 10 7 5 17 23 26 29 24 26 19 28 6 6 5 6 5 3 5
3 6 3 15 14 18 18 27 20 6 11 21 13 23 23 21 28 26 28 24 15 29 30 26 8 8 20 7 5 4 24 18 22 25 23 23 34 26 19 11 8 3 2 3 5
Wind_Direction
227 219 217 215 215 218 225 233 234 241 237 243 248 316 333 325 306 271 262 358 10 359 332 278 275 265 267 260 12 314 259 238 253 252 259 134 168 123 31 297 147 90 52 107 115
232 227 220 215 215 215 218 222 227 225 227 233 234 301 321 317 292 274 286 139 67 9 279 276 250 212 245 226 182 231 203 233 261 281 279 141 192 152 191 200 209 143 100 116 128
237 233 226 216 212 213 213 216 222 215 213 209 208 234 294 298 285 253 28 135 135 268 267 315 304 265 229 216 195 216 239 262 272 304 13 348 150 310 213 261 207 196 163 155 156
230 232 230 223 212 210 210 212 213 211 208 197 187 200 263 254 234 75 23 354 173 246 253 224 239 225 226 229 226 246 271 256 279 38 15 322 316 243 216 256 66 23 97 151 176
245 226 228 227 218 209 206 207 208 207 202 189 182 176 192 218 244 130 159 163 198 211 224 219 221 217 234 234 231 212 269 277 257 97 12 322 288 286 270 249 271 226 124 173 182
237 240 225 223 221 213 207 204 202 202 193 187 182 176 261 235 77 117 80 262 230 201 217 225 240 238 301 274 253 173 245 264 262 278 250 230 268 279 276 275 286 283 208 207 219
238 235 232 223 218 212 208 203 198 194 194 190 186 186 235 229 100 340 200 243 211 219 213 224 245 297 178 275 273 325 285 269 266 232 218 258 247 245 262 268 259 243 243 216 217
238 235 233 225 221 211 208 202 197 192 192 193 187 214 238 224 227 152 231 211 199 249 242 226 252 257 264 71 29 240 242 252 229 220 229 191 260 260 247 240 252 256 252 266 224
234 242 242 232 221 215 209 203 194 189 189 185 181 220 241 162 204 222 238 207 194 216 219 248 152 225 203 229 225 204 236 218 265 245 183 169 254 256 276 276 248 247 247 239 242
227 206 277 254 232 215 208 202 196 185 183 185 235 197 234 205 176 206 192 242 183 168 164 186 202 203 208 191 201 213 216 243 271 226 176 246 265 241 259 285 280 270 293 295 279
224 222 220 261 268 228 206 199 193 200 189 183 182 216 355 191 176 198 189 211 182 197 185 194 199 200 193 207 232 273 344 321 216 149 77 262 272 276 280 274 271 258 242 247 253
225 222 213 213 295 253 215 217 206 144 187 217 202 209 116 173 174 207 172 188 190 195 201 173 221 206 223 211 220 248 265 247 299 15 335 277 270 264 259 250 241 248 252 257 263
221 220 210 215 239 296 221 219 215 261 209 198 212 198 199 170 191 197 176 200 190 195 199 205 201 209 212 222 227 227 230 240 240 319 317 288 276 251 256 243 240 245 245 249 254
217 215 210 205 236 231 230 217 194 142 239 180 200 226 185 196 226 180 184 188 186 203 199 233 229 194 217 217 209 230 222 255 292 322 240 68 288 293 299 280 214 221 225 232 238
219 216 210 181 188 217 219 206 173 180 224 170 182 190 170 183 132 189 175 207 212 184 197 210 200 193 204 203 205 218 228 193 220 250 290 261 278 252 228 251 253 237 225 215 222
215 214 212 206 191 247 318 288 170 221 236 173 152 176 162 195 198 151 173 219 227 214 213 218 355 211 197 198 186 161 108 113 213 222 258 201 200 233 214 232 239 206 228 184 7
208 202 203 190 212 197 215 251 220 215 135 179 164 164 179 179 193 168 173 191 185 169 201 219 203 247 178 180 165 173 160 147 197 245 227 186 208 235 294 304 275 235 316 353 1
200 199 204 212 192 186 193 236 224 222 168 127 171 179 186 165 193 172 171 185 208 202 159 180 205 200 179 204 170 182 184 153 181 194 238 196 239 258 214 240 347 74 122 57 271
190 195 207 204 192 171 203 231 226 166 177 148 171 179 180 184 156 170 181 189 194 192 164 188 221 177 170 198 155 192 213 230 51 81 51 243 256 276 250 231 242 279 317 315 83
181 191 222 190 175 178 222 234 277 308 193 160 177 186 184 179 166 179 183 199 197 199 203 157 154 176 161 206 215 191 151 203 224 187 238 245 244 234 348 216 215 216 129 96 56
160 193 190 173 168 211 225 215 222 255 282 199 193 181 184 177 185 189 189 175 195 193 211 165 122 198 140 207 185 192 191 208 164 208 190 274 249 198 227 236 188 137 108 94 34
151 201 148 149 194 207 227 204 202 253 225 243 173 162 188 177 189 191 195 205 190 183 194 202 111 171 196 155 211 216 212 199 174 210 231 290 260 74 93 106 87 77 109 102 76
163 173 157 156 196 216 164 177 216 172 217 250 176 189 176 173 189 185 202 202 179 189 187 189 163 107 111 282 269 226 211 217 233 267 198 181 258 198 233 173 117 161 82 52 26
116 170 202 189 216 215 210 201 193 216 229 257 214 184 170 188 185 179 194 182 180 194 168 167 153 197 191 199 140 201 214 214 216 229 237 237 255 250 270 295 339 50 28 2 35
153 201 168 186 201 203 203 193 215 197 211 197 265 193 172 184 190 173 188 190 180 181 175 176 194 207 224 111 158 199 202 209 216 230 217 240 238 255 240 248 254 12 313 49 7
163 169 163 170 199 198 199 210 196 205 203 214 227 220 186 174 177 169 173 175 180 177 180 178 211 170 238 237 238 161 203 211 219 227 235 246 252 251 223 233 309 310 101 9 296
158 184 137 219 193 197 200 209 208 167 245 225 196 223 187 185 178 182 179 175 180 175 183 186 141 158 232 139 105 340 229 207 219 230 226 233 242 260 262 260 249 141 86 242 66